Location: El Atico
(3.0014°N, 75.4378°W)
Time: 13:03:53
(UTC+00:00)

Atlas Centaur 2 - Pass Details

Date: 09 December 2025
Orbit: 456 x 1249 km, 30.4° (Epoch: 25 January)

Event Time Altitude Azimuth Distance (km) Brightness Sun altitude
Rises 23:09:13 0° 252° (WSW) 2,495 7.5 -4.6°
Reaches altitude 10° 23:11:31 10° 261° (W) 1,587 5.3 -5.1°
Maximum altitude 23:14:48 35° 329° (NNW) 740 2.1 -5.9°
Drops below altitude 10° 23:18:09 10° 37° (NE) 1,620 3.2 -6.6°
Enters shadow 23:19:00 - 41° (NE) 1,948 3.6 -6.8°
